693  
ASUS43 KEAX 200210  
RWREAX  
 
WEATHER ROUNDUP FOR EASTERN KANSAS AND NORTHWEST MISSOURI  
NATIONAL WEATHER SERVICE KANSAS CITY/PLEASANT HILL MO  
900 PM CDT FRI OCT 19 2018  
 
KSZ040-057-103>105-MOZ028-029-037-043-200300-   
..KANSAS CITY METROPOLITAN AREA
 
 
 
CITY SKY/WX TMP DP RH WIND PRES REMARKS
 
K.C. INTL PTCLDY 54 51 90 SW7 30.06R  
K.C. DOWNTOWN CLEAR 57 50 77 SW3 30.05S  
LEES SUMMIT PTCLDY 55 53 93 SW8 30.06S  
OLATHE - IXD CLEAR 55 53 93 SW9 30.08S  
OLATHE - OJC CLEAR 55 52 89 SW7 30.07S  
LAWRENCE CLEAR 48 46 93 CALM 30.08R  
 

 
 
MOZ001>008-011>017-020>025-030>033-038>040-044>046-053-054-200300-   
..NORTHERN AND CENTRAL MISSOURI
 
 
 
CITY SKY/WX TMP DP RH WIND PRES REMARKS
 
ST. JOSEPH CLEAR 62 45 53 NW12 30.06R  
MOSBY CLEAR 52 50 93 CALM 30.05R  
WARRENSBURG PTCLDY 52 50 93 S5 30.06F  
WHITEMAN AFB PTCLDY 53 52 97 SW9 30.02S  
CLINTON CLOUDY 54 54 100 SW7 30.09S FOG  
SEDALIA CLOUDY 52 52 100 SW9 30.07S  
WARSAW NOT AVBL  
CHILLICOTHE N/A 57 53 86 SW5 30.03S  
KIRKSVILLE CLEAR 54 51 90 SW8 30.00S  
 

 
 
MOZ041-047>049-056>058-063>065-088>090-097-200300-   
..EASTERN AND SOUTHERN MISSOURI
 
 
 
CITY SKY/WX TMP DP RH WIND PRES REMARKS
 
ST. LOUIS INTL CLOUDY 54 52 93 SW8 30.03F  
SPIRIT OF STL MOCLDY 55 52 89 SW6 30.03F  
COLUMBIA CLOUDY 53 50 89 SW8 30.04F  
JEFFERSON CITY CLOUDY 55 51 86 SW3 30.06S  
ROLLA CLOUDY 54 50 86 W12 30.08S  
OSAGE BEACH CLOUDY 54 52 93 SW7 30.09S  
SPRINGFIELD CLOUDY 54 51 90 W7 30.12R  
BRANSON CLOUDY 50 50 100 NW6 30.14R  
JOPLIN CLOUDY 54 53 97 SW7 30.14S  
WEST PLAINS CLOUDY 50 50 100 W5 30.12R FOG  
 

 
 
IAZ060-094-KSZ022-034>040-054-083-096-NEZ052-066-093-200300-    
..KANSAS...SOUTHEAST NEBRASKA AND IOWA
 
 
 
CITY SKY/WX TMP DP RH WIND PRES REMARKS
 
TOPEKA CLEAR 53 50 89 CALM 30.08R  
MANHATTAN CLEAR 62 44 51 N3 30.12R  
EMPORIA CLEAR 54 50 86 SW7 30.11R  
CHANUTE PTCLDY 52 52 100 S7 30.13R  
WICHITA PTCLDY 55 54 96 CALM 30.13R  
OMAHA CLEAR 54 35 48 NW8 30.10R  
LINCOLN CLEAR 58 34 40 NW6 30.14R  
FALLS CITY CLEAR 55 39 54 NW8 30.09R  
LAMONI CLEAR 58 43 57 NW13 30.03R  
DES MOINES CLEAR 53 38 56 NW9 30.02R  
 

 
 
 
 
CLICK HERE TO GO TO PREVIOUS BULLETINS.

The Nexlab MO Page
The Nexlab KS Page Main Text Page